Rechercher aéroport 
image banner adimage banner adimage banner ad
image banner ad

64CA - Tahoe Forest Hospital

Situé à Truckee, United States

ICAO - 64CA, IATA -

Données fournies par Airmate  

Information générale

Coordonnées: N39°19'27" W120°12'1"
Élévation : 5200 feet MSL.
Variation magnétique : 16° East
Voir autres Aéroports à California

Données opérationnelles

Special qualification required
Heure actuelle UTC:
Heure actuelle locale:
Météo à : KTRK - Truckee-Tahoe ( 5 km )
METAR: KTRK 210238Z AUTO 02004KT 10SM CLR 14/M07 A3032 RMK AO2
TAF: KTRK 202320Z 2100/2124 35006KT P6SM SKC FM210400 00000KT P6SM SKC FM212000 23007KT P6SM SKC
Voir NOTAMs / SUP AIP / TFR affectant cet aéroport [VIEW]
Fréquences de communication: [VIEW]

Pistes:

Coordonnées de l'aéroport

Adresse: Truckee United States

Vue satellite de 64CA